Spokane, WA

7:13 AM PDT on September 22, 2017 (GMT -0700)
Spokane International

Weather History for KGEG - September, 2013

Change the Weather History Date:

Saturday, September 7, 2013

  Actual Average Record
Temperature  
Mean Temperature 61 °F 63 °F  
Max Temperature 69 °F 76 °F 95 °F (1944)
Min Temperature 52 °F 50 °F 35 °F (1976)
Degree Days  
Heating Degree Days 4 4  
Month to date heating degree days 6 22  
Since 1 July heating degree days 13 87  
Cooling Degree Days 0 2  
Month to date cooling degree days 42 16  
Year to date cooling degree days 643 427  
Growing Degree Days 12 (Base 50)    
Moisture  
Dew Point 52 °F    
Average Humidity 69    
Maximum Humidity 93    
Minimum Humidity 45    
Precipitation  
Precipitation 0.05 in 0.02 in 1.05 in (1995)
Month to date precipitation 0.30 0.15  
Year to date precipitation 7.77 10.26  
Snow  
Snow 0.00 in 0.00 in 0.00 in (2002)
Month to date snowfall 0.0 0.0  
Since 1 July snowfall 0.0 0.0  
Since 1 September snowfall 0.0 0.0  
Snow Depth 0.00 in    
Sea Level Pressure  
Sea Level Pressure 30.09 in    
Wind  
Wind Speed 3 mph (NNE)    
Max Wind Speed 14 mph    
Max Gust Speed 17 mph    
Visibility 10 miles    
Events Rain    
T = Trace of Precipitation, MM = Missing Value Source: NWS Daily Summary

Daily Weather History Graph

Daily Weather History Graph

Search for Another Location

Airport or City:

Trip Planner

Search our weather history database for the weather conditions in past years. The results will help you decide how hot, cold, wet, or windy it might be!

Date:

Astronomy

Sep. 07, 2013 Rise Set
Actual Time 6:17 AM PDT 7:17 PM PDT
Civil Twilight 5:45 AM PDT 7:49 PM PDT
Nautical Twilight 5:07 AM PDT 8:26 PM PDT
Astronomical Twilight 4:27 AM PDT 9:06 PM PDT
Moon 8:50 AM PDT (9/7) 8:03 PM PDT (9/7)
Length of Visible Light 14h 03m
Length of Day
13h 00m
Waxing Crescent, 6% of the Moon is Illuminated
Sep 7
Waxing Crescent
Sep 12
First Quarter
Sep 19
Full
Sep 26
Last Quarter
Oct 4
New

Hourly Weather History & Observations

Time (PDT) Temp. Dew Point Humidity Pressure Visibility Wind Dir Wind Speed Gust Speed Precip Events Conditions
12:53 AM 57.9 °F 51.1 °F 78% 30.12 in 10.0 mi South 4.6 mph - N/A   Mostly Cloudy
1:53 AM 57.9 °F 52.0 °F 81% 30.12 in 10.0 mi Calm Calm - N/A   Mostly Cloudy
2:53 AM 57.9 °F 51.1 °F 78% 30.11 in 10.0 mi Calm Calm - N/A   Mostly Cloudy
3:53 AM 57.0 °F 51.1 °F 81% 30.11 in 10.0 mi Calm Calm - N/A   Mostly Cloudy
4:53 AM 55.9 °F 51.1 °F 84% 30.11 in 10.0 mi Calm Calm - N/A   Scattered Clouds
5:09 AM 53.6 °F 50.0 °F 88% 30.13 in 10.0 mi WSW 4.6 mph - N/A   Mostly Cloudy
5:53 AM 54.0 °F 51.1 °F 90% 30.11 in 10.0 mi Calm Calm - N/A   Mostly Cloudy
6:53 AM 55.0 °F 51.1 °F 86% 30.12 in 10.0 mi Calm Calm - N/A   Mostly Cloudy
7:25 AM 55.4 °F 51.8 °F 88% 30.13 in 10.0 mi South 3.5 mph - N/A   Mostly Cloudy
7:53 AM 55.9 °F 51.1 °F 84% 30.12 in 10.0 mi SSE 3.5 mph - N/A   Mostly Cloudy
8:12 AM 57.2 °F 51.8 °F 82% 30.13 in 10.0 mi SE 4.6 mph - N/A   Mostly Cloudy
8:53 AM 59.0 °F 52.0 °F 78% 30.11 in 10.0 mi SE 5.8 mph - N/A   Mostly Cloudy
9:53 AM 61.0 °F 50.0 °F 67% 30.11 in 10.0 mi ESE 4.6 mph - N/A   Mostly Cloudy
10:53 AM 64.0 °F 48.9 °F 58% 30.11 in 10.0 mi Calm Calm - N/A   Mostly Cloudy
11:53 AM 64.9 °F 48.9 °F 56% 30.09 in 10.0 mi Calm Calm - N/A   Mostly Cloudy
12:53 PM 68.0 °F 46.9 °F 47% 30.08 in 10.0 mi Variable 4.6 mph - N/A   Mostly Cloudy
1:53 PM 68.0 °F 46.9 °F 47% 30.07 in 10.0 mi North 3.5 mph - N/A   Mostly Cloudy
2:53 PM 66.9 °F 50.0 °F 54% 30.06 in 10.0 mi NNW 10.4 mph - N/A   Mostly Cloudy
3:53 PM 63.0 °F 52.0 °F 67% 30.06 in 10.0 mi NW 13.8 mph - 0.00 in Rain Light Rain
4:53 PM 59.0 °F 55.0 °F 87% 30.08 in 10.0 mi NNW 8.1 mph - 0.00 in Rain Light Rain
5:53 PM 59.0 °F 55.0 °F 87% 30.06 in 10.0 mi NNE 6.9 mph - 0.05 in Rain Light Rain
6:53 PM 59.0 °F 55.9 °F 90% 30.05 in 10.0 mi NE 4.6 mph - 0.00 in   Mostly Cloudy
7:53 PM 59.0 °F 55.0 °F 87% 30.05 in 10.0 mi NNE 4.6 mph - N/A   Mostly Cloudy
8:53 PM 57.9 °F 55.0 °F 90% 30.05 in 10.0 mi North 4.6 mph - N/A   Mostly Cloudy
9:53 PM 57.0 °F 54.0 °F 89% 30.05 in 10.0 mi Calm Calm - N/A   Scattered Clouds
10:53 PM 55.0 °F 53.1 °F 93% 30.05 in 10.0 mi NNW 4.6 mph - N/A   Partly Cloudy
11:53 PM 55.0 °F 53.1 °F 93% 30.05 in 10.0 mi Calm Calm - N/A   Partly Cloudy